This demonstration page uses our WeatherBlox Daily Observations layout. Learn more.

Left ArrowRight Arrow

Hourly Observations for August 25, 2022

Temp ( °F °C ) Dew Point ( °F °C ) Humidity (%) Winds ( mph kmh ) Pressure ( in mb ) Visibility ( mi km ) Precip ( " mm )
12:59 am 00:59 Partly Cloudy 75 23.9 69 20.6 82 82 SSW 6 9 30.08 1019 10 16 0.00 0.00
1:59 am 01:59 Partly Cloudy 75 23.9 70 21.1 84 84 SSW 3 6 30.08 1019 10 16 0.00 0.00
2:59 am 02:59 Partly Cloudy 75 23.9 69 20.6 82 82 Calm 30.07 1018 10 16 0.00 0.00
3:59 am 03:59 Mostly Cloudy 73 22.8 69 20.6 87 87 Calm 30.07 1018 10 16 0.00 0.00
4:59 am 04:59 Mostly Cloudy 74 23.3 70 21.1 87 87 Calm 30.06 1018 10 16 0.00 0.00
5:59 am 05:59 Partly Cloudy 73 22.8 70 21.1 90 90 SW 5 7 30.06 1018 9 14 0.00 0.00
6:59 am 06:59 Partly Cloudy 74 23.3 71 21.7 91 91 WSW 5 7 30.07 1018 10 16 0.00 0.00
7:59 am 07:59 Partly Cloudy 78 25.6 73 22.8 85 85 Calm 30.08 1019 10 16 0.00 0.00
8:59 am 08:59 Mostly Cloudy 81 27.2 73 22.8 77 77 WSW 3 6 30.09 1019 10 16 0.00 0.00
9:59 am 09:59 Mostly Cloudy 85 29.4 72 22.2 65 65 WNW 6 9 30.09 1019 10 16 0.00 0.00
10:59 am 10:59 Mostly Cloudy 87 30.6 70 21.1 57 57 WSW 6 9 30.10 1019 10 16 0.00 0.00
11:59 am 11:59 Mostly Cloudy 87 30.6 69 20.6 55 55 NNW 6 9 30.10 1019 10 16 0.00 0.00
12:59 pm 12:59 Mostly Cloudy 91 32.8 69 20.6 49 49 N 6 9 30.09 1019 10 16 0.00 0.00
1:59 pm 13:59 Mostly Cloudy 87 30.6 71 21.7 59 59 ENE 10 17 30.07 1018 10 16 0.00 0.00
2:59 pm 14:59 Mostly Cloudy 87 30.6 71 21.7 59 59 ESE 8 13 30.06 1018 10 16 0.00 0.00
3:59 pm 15:59 Mostly Cloudy 85 29.4 69 20.6 59 59 SSE 7 11 30.06 1018 10 16 0.00 0.00
4:59 pm 16:59 Cloudy 83 28.3 65 18.3 55 55 SE 8 13 30.06 1018 10 16 0.00 0.00
5:59 pm 17:59 Cloudy 76 24.4 71 21.7 85 85 SSW 7 11 30.06 1018 8 13 0.01 0.13
6:59 pm 18:59 Mostly Cloudy 80 26.7 69 20.6 69 69 S 9 15 30.05 1018 10 16 0.00 0.00
7:59 pm 19:59 Mostly Cloudy 80 26.7 70 21.1 71 71 S 6 9 30.06 1018 10 16 0.00 0.00
8:59 pm 20:59 Mostly Cloudy 80 26.7 68 20 67 67 S 6 9 30.06 1018 10 16 0.00 0.00
9:59 pm 21:59 Cloudy 80 26.7 68 20 67 67 SSW 7 11 30.07 1018 10 16 0.00 0.00
10:59 pm 22:59 Cloudy 79 26.1 68 20 69 69 SW 6 9 30.08 1019 10 16 0.00 0.00
11:59 pm 23:59 Cloudy 77 25 69 20.6 77 77 SSW 7 11 30.07 1018 10 16 0.00 0.00

Powered by Vaisala Xweather